#timestamp,LO_Frequency,Hit,StdDev 
1628427615.5,286046998.5,N
1628427635.3,286046998.1,N
1628427655.2,286047000.6,N
1628427675.0,286047000.9,N
1628427675.9,286047000.9,N
1628427695.8,286047000.7,N
1628427715.6,286047000.3,N
1628427735.4,286047002.8,N
1628427755.3,286047001.9,N
1628427775.1,286047002.0,N
1628427795.8,286047001.6,N
1628427815.7,286047000.0,N
1628427835.5,286047001.0,N
1628427855.4,286046999.7,N
1628427875.2,286047003.0,N
1628427895.0,286047002.2,N
1628427895.9,286047002.2,N
1628427915.8,286047004.0,N
1628427935.6,286047001.5,N
1628427955.4,286047002.2,N
1628427975.3,286046999.9,N
1628427995.1,286046999.9,N
1628428015.9,286047000.1,N
1628428035.7,286047000.1,N
1628428055.5,286047002.8,N
1628428075.4,286047001.1,N
1628428095.2,286047001.2,N
1628428115.0,286047001.2,N
1628428115.9,286047001.2,N
1628428135.8,286046998.3,N
1628428155.6,286046999.0,N
1628428175.5,286046999.5,N
1628428195.3,286046999.5,N
1628428215.1,286046996.5,N
1628428235.9,286046996.7,N
1628428255.7,286046996.7,N
1628428275.5,286046999.6,N
1628428295.4,286046998.2,N
1628428315.2,286046999.0,N
1628428335.1,286046998.3,N
1628428336.0,286046998.3,N
1628428355.8,286047000.5,N
1628428375.6,286047000.8,N
1628428395.5,286047000.7,N
1628428415.3,286047000.7,N
1628428435.1,286047001.0,N
1628428455.9,286046999.9,N
1628428475.7,286047000.1,N
1628428495.6,286047000.0,N
1628428515.4,286046999.8,N
1628428535.2,286047000.5,N
1628428555.1,286046998.1,N
1628428556.0,286046998.1,N
1628428575.8,286047000.8,N
1628428595.7,286047000.2,N
1628428615.5,286047000.5,N
1628428635.3,286047002.8,N
1628428655.2,286047000.5,N
1628428675.9,286047000.6,N
1628428695.7,286046998.3,N
1628428715.6,286046997.0,N
1628428735.4,286046999.5,N
1628428755.2,286047000.9,N
1628428775.1,286047000.5,N
1628428795.8,286047000.6,N
1628428815.7,286047002.1,N
1628428835.5,286047003.9,Y
1628428855.4,286047002.5,P
1628428875.2,286047000.8,N
1628428895.0,286046998.2,N
1628428895.9,286046998.2,N
1628428915.8,286047001.1,N
1628428935.6,286046998.8,N
1628428955.4,286046996.9,N
1628428975.3,286046997.7,N
1628428995.1,286046999.2,N
1628429015.9,286046998.6,N
1628429035.7,286046999.0,N
1628429055.5,286046999.6,N
1628429075.4,286046995.1,Y
1628429095.2,286046997.2,P
1628429115.0,286046996.5,P
1628429115.9,286046996.5,N
1628429135.8,286046998.7,N
1628429155.6,286046999.5,N
1628429175.5,286046997.3,N
1628429195.3,286046997.9,N
1628429215.1,286046995.5,Y
1628429235.9,286046998.4,P
1628429255.7,286046999.1,P
1628429275.5,286046998.6,N
1628429295.4,286047000.4,N
1628429315.2,286047000.3,N
1628429335.1,286047002.7,N
1628429336.0,286047002.7,N
1628429355.8,286047002.0,N
1628429375.6,286047000.1,N
1628429395.5,286047002.1,N
1628429415.3,286047002.0,N
1628429435.1,286047002.5,N
1628429455.9,286047002.5,N
1628429475.7,286047002.7,N
1628429495.6,286047000.7,N
1628429515.4,286047000.5,N
1628429535.2,286047000.9,N
1628429555.1,286047002.7,N
1628429556.0,286047002.7,N
1628429575.8,286047002.2,N
1628429595.6,286047002.6,N
1628429615.5,286047001.7,N
1628429635.3,286047004.4,N
1628429655.2,286047001.8,N
1628429675.9,286047004.0,N
1628429695.7,286047004.3,N
1628429715.6,286047004.2,N
1628429735.4,286047003.5,N
1628429755.2,286047003.3,N
1628429775.1,286047005.9,Y
1628429776.0,286047005.9,P
1628429795.8,286047001.8,N
1628429815.7,286047001.6,N
1628429835.5,286047003.9,N
1628429855.3,286047004.1,N
1628429875.2,286047003.9,N
1628429895.0,286047006.0,Y
1628429895.9,286047006.0,P
1628429915.8,286047002.0,N
1628429935.6,286047000.2,N
1628429955.4,286047000.1,N
1628429975.3,286047000.7,N
1628429995.1,286047001.0,N
1628430015.9,286047000.4,N
1628430035.7,286046999.7,N
1628430055.5,286047002.4,N
1628430075.4,286047004.1,N
1628430095.2,286047002.4,N
1628430115.0,286047001.9,N
1628430115.9,286047001.9,N
1628430135.8,286047001.4,N
1628430155.6,286047001.4,N
1628430175.5,286047003.1,N
1628430195.3,286047001.8,N
1628430215.1,286047001.3,N
1628430235.9,286047001.6,N
1628430255.7,286047004.4,Y
1628430275.5,286047001.0,P
1628430295.4,286047000.6,N
1628430315.2,286047000.9,N
1628430335.0,286047001.0,N
1628430336.0,286047001.0,N
1628430355.8,286047000.5,N
1628430375.6,286047000.5,N
1628430395.5,286047002.3,Y
1628430415.3,286047001.6,P
1628430435.1,286047002.4,P
1628430455.9,286047001.7,N
1628430475.7,286047002.4,Y
1628430495.6,286046998.7,P
1628430515.4,286046998.1,N
1628430535.2,286046999.2,N
1628430555.1,286046996.5,N
1628430556.0,286046996.5,N
1628430575.8,286046999.3,N
1628430595.6,286046999.3,N
1628430615.5,286046996.9,N
1628430635.3,286046996.9,N
1628430655.2,286046997.1,N
1628430675.9,286046997.1,N
1628430695.7,286046996.6,N
1628430715.6,286046997.1,N
1628430735.4,286046998.0,N
1628430755.2,286046997.5,N
1628430775.1,286046995.7,Y
1628430776.0,286046995.7,P
1628430795.8,286046997.3,N
1628430815.7,286046996.7,P
1628430835.5,286046996.7,Y
1628430855.3,286046999.7,P
1628430875.2,286047002.6,N
1628430895.0,286047000.7,N
1628430895.9,286047000.7,N
1628430915.8,286046998.6,N
1628430935.6,286046999.4,N
1628430955.4,286046999.2,N
1628430975.3,286046999.2,N
1628430995.1,286047000.6,N
1628431015.9,286047001.6,N
1628431035.7,286047004.2,N
1628431055.5,286047003.1,N
1628431075.4,286047006.0,Y
1628431095.2,286047005.9,P
1628431115.0,286047005.9,N
1628431116.0,286047005.9,N
1628431135.8,286047003.5,N
1628431155.6,286047006.0,N
1628431175.5,286047005.2,N
1628431195.3,286047003.3,N
